Regional Weather Roundup
Issued by NWS

Home | Current Version | Previous Version | Text Only | Print | Product List | Glossary On
Versions: 1 2 3 4 5 6 7 8 9 10 11 12 13 14 15 16 17 18 19 20 21 22 23 24 25 26 27
000
ASUS45 KREV 191710
RWRNV
NEVADA REGIONAL WEATHER ROUNDUP
NATIONAL WEATHER SERVICE RENO NV
1000 AM PDT THU APR 19 2018

NOTE: "FAIR" INDICATES FEW OR NO CLOUDS BELOW 12,000 FEET WITH NO
SIGNIFICANT WEATHER AND/OR OBSTRUCTIONS TO VISIBILITY.

NVZ001-003-004-191800-
WESTERN NEVADA

CITY           SKY/WX    TMP DP  RH WIND       PRES   REMARKS
RENO           PTSUNNY   42  28  57 NW13      29.98S
CARSON CITY    FAIR      41  25  52 N16G25    29.98S
MINDEN         PTSUNNY   43  23  45 N8        29.98S
SLIDE MTN        N/A     19  18  93 N8          N/A
FALLON         PTSUNNY   43  32  65 NW8       29.95S
LOVELOCK       CLOUDY    43  33  68 N8        29.95S
HAWTHORNE      MOSUNNY   45  30  57 N20       29.93S
$$

NVZ002-CAZ072-073-191800-
NORTHERN AND CENTRAL SIERRA

CITY           SKY/WX    TMP DP  RH WIND       PRES   REMARKS
S. LAKE TAHOE  MOSUNNY   34  19  54 N6        29.95S
TRUCKEE        CLOUDY    36  23  60 N9        29.98R
SQUAW VLY 8000   N/A     25  19  80 NE6         N/A
BLUE CANYON    SUNNY     40  22  48 VRB5      29.99R
MAMMOTH LAKES  PTSUNNY   37  10  32 W12G23    29.90R
BRIDGEPORT     CLOUDY    36  17  46 VRB6      29.88
$$

NVZ030-031-036-191800-
NORTHERN NEVADA

CITY           SKY/WX    TMP DP  RH WIND       PRES   REMARKS
ELKO           CLOUDY    46  25  43 CALM      29.83S
WINNEMUCCA     CLOUDY    37  35  92 NW8       29.94R
WENDOVER       CLOUDY    53  19  26 N9        29.84S
$$

NVZ035-037-191800-
CENTRAL NEVADA

CITY           SKY/WX    TMP DP  RH WIND       PRES   REMARKS
ELY            CLOUDY    48  15  26 SE17G30   29.78F
EUREKA           N/A     39  29  67 SW8       29.84R
$$

NVZ013-014-191800-
SOUTH CENTRAL NEVADA

CITY           SKY/WX    TMP DP  RH WIND       PRES   REMARKS
TONOPAH        HVY SNOW  33  30  88 NW26G38   29.84R VSB 1/4
$$

NVZ017-020-022-191800-
SOUTHERN NEVADA

CITY           SKY/WX    TMP DP  RH WIND       PRES   REMARKS
LAS VEGAS      MOSUNNY   61   9  12 SW17G24   29.78R
N. LAS VEGAS   SUNNY     62  11  13 SW17G24   29.75F
NELLIS AFB     MOSUNNY   63   9  12 S24G30    29.76S
HENDERSON      SUNNY     60  10  14 S25G33    29.78F
MERCURY        SUNNY     57  15  19 SW20G29   29.79R
$$




USA.gov is the U.S. government's official web portal to all federal, state and local government web resources and services.